Lafayette, CO

9:31 AM MST on February 26, 2017 (GMT -0700)
Erie Municipal Airport

Weather History for KEIK - September, 2012

Change the Weather History Date:

Saturday, September 29, 2012

  Actual Average (KBJC) Record (KBJC)
Temperature  
Mean Temperature 60 °F -  
Max Temperature 77 °F 68 °F 83 °F (1992)
Min Temperature 42 °F 45 °F 18 °F (1985)
Degree Days  
Heating Degree Days 6    
Growing Degree Days 10 (Base 50)    
Moisture  
Dew Point 40 °F    
Average Humidity 57    
Maximum Humidity 96    
Minimum Humidity 17    
Precipitation  
Precipitation 0.00 in - - ()
Sea Level Pressure  
Sea Level Pressure 30.15 in    
Wind  
Wind Speed 2 mph (East)    
Max Wind Speed 8 mph    
Max Gust Speed -    
Visibility 10 miles    
Events      
Averages and records for this station are not official NWS values.
T = Trace of Precipitation, MM = Missing Value Source: NWS Daily Summary

Daily Weather History Graph

Daily Weather History Graph

Search for Another Location

Airport or City:

Trip Planner

Search our weather history database for the weather conditions in past years. The results will help you decide how hot, cold, wet, or windy it might be!

Date:

Astronomy

Sep. 29, 2012 Rise Set
Actual Time 6:55 AM MDT 6:44 PM MDT
Civil Twilight 6:28 AM MDT 7:11 PM MDT
Nautical Twilight 5:56 AM MDT 7:43 PM MDT
Astronomical Twilight 5:24 AM MDT 8:14 PM MDT
Moon 6:18 PM MDT (9/29) 6:28 AM MDT (9/29)
Length of Visible Light 12h 43m
Length of Day
11h 49m
Full, 100% of the Moon is Illuminated
Sep 29
Full
Sep 29
Full
Oct 8
Last Quarter
Oct 15
New
Oct 21
First Quarter

Hourly Weather History & Observations

Time (MDT) Temp. Windchill Dew Point Humidity Pressure Visibility Wind Dir Wind Speed Gust Speed Precip Events Conditions
12:14 AM 50.5 °F - 46.0 °F 85% 30.17 in 10.0 mi Calm Calm - N/A   Clear
12:34 AM 48.7 °F - 45.0 °F 87% 30.17 in 10.0 mi Calm Calm - N/A   Clear
12:54 AM 48.9 °F - 45.0 °F 86% 30.16 in 10.0 mi Calm Calm - N/A   Clear
1:14 AM 47.7 °F - 44.8 °F 90% 30.16 in 10.0 mi Calm Calm - N/A   Clear
1:34 AM 46.9 °F - 44.1 °F 90% 30.17 in 10.0 mi Calm Calm - N/A   Clear
1:54 AM 47.1 °F - 43.9 °F 88% 30.17 in 10.0 mi SSW 3.5 mph - N/A   Clear
2:14 AM 47.1 °F - 43.7 °F 88% 30.17 in 10.0 mi SW 3.5 mph - N/A   Clear
2:34 AM 46.2 °F - 43.7 °F 91% 30.17 in 10.0 mi Calm Calm - N/A   Clear
2:54 AM 46.6 °F - 43.2 °F 88% 30.16 in 10.0 mi Calm Calm - N/A   Clear
3:14 AM 47.1 °F - 43.5 °F 87% 30.17 in 10.0 mi Calm Calm - N/A   Clear
3:34 AM 44.2 °F - 42.4 °F 93% 30.17 in 10.0 mi Calm Calm - N/A   Clear
3:54 AM 45.5 °F - 43.0 °F 91% 30.16 in 10.0 mi Calm Calm - N/A   Clear
4:14 AM 44.2 °F 42.7 °F 42.4 °F 93% 30.16 in 10.0 mi SSW 3.5 mph - N/A   Clear
4:34 AM 44.2 °F - 43.0 °F 95% 30.16 in 10.0 mi Calm Calm - N/A   Clear
4:54 AM 44.1 °F 42.5 °F 42.8 °F 95% 30.16 in 10.0 mi SW 3.5 mph - N/A   Clear
5:14 AM 43.3 °F 41.7 °F 42.3 °F 96% 30.16 in 10.0 mi South 3.5 mph - N/A   Clear
5:34 AM 44.1 °F - 42.4 °F 94% 30.16 in 10.0 mi Calm Calm - N/A   Clear
5:54 AM 43.9 °F - 42.1 °F 93% 30.16 in 10.0 mi Calm Calm - N/A   Clear
6:14 AM 42.8 °F - 41.4 °F 95% 30.16 in 10.0 mi Calm Calm - N/A   Clear
6:34 AM 43.5 °F - 41.9 °F 94% 30.16 in 10.0 mi Calm Calm - N/A   Clear
6:54 AM 43.2 °F - 41.5 °F 94% 30.17 in 10.0 mi Calm Calm - N/A   Clear
7:14 AM 42.8 °F - 41.4 °F 95% 30.17 in 10.0 mi Calm Calm - N/A   Clear
7:34 AM 43.7 °F - 42.3 °F 95% 30.18 in 10.0 mi Calm Calm - N/A   Clear
7:54 AM 46.2 °F - 44.4 °F 93% 30.18 in 10.0 mi Calm Calm - N/A   Clear
8:14 AM 48.9 °F - 45.7 °F 89% 30.18 in 10.0 mi Calm Calm - N/A   Clear
8:34 AM 52.2 °F - 45.9 °F 79% 30.18 in 10.0 mi Calm Calm - N/A   Clear
8:54 AM 55.6 °F - 45.0 °F 67% 30.18 in 10.0 mi Calm Calm - N/A   Clear
9:14 AM 58.5 °F - 46.9 °F 66% 30.18 in 10.0 mi Calm Calm - N/A   Clear
9:34 AM 60.6 °F - 45.7 °F 58% 30.18 in 10.0 mi Calm Calm - N/A   Clear
9:54 AM 63.0 °F - 43.9 °F 50% 30.18 in 10.0 mi Calm Calm - N/A   Clear
10:14 AM 64.2 °F - 42.6 °F 45% 30.18 in 10.0 mi Calm Calm - N/A   Clear
10:34 AM 65.8 °F - 43.2 °F 44% 30.18 in 10.0 mi ESE 4.6 mph - N/A   Clear
10:54 AM 67.1 °F - 42.8 °F 41% 30.17 in 10.0 mi Calm Calm - N/A   Clear
11:14 AM 68.0 °F - 43.5 °F 41% 30.17 in 10.0 mi East 3.5 mph - N/A   Clear
11:34 AM 69.1 °F - 42.6 °F 38% 30.17 in 10.0 mi ENE 3.5 mph - N/A   Clear
11:54 AM 70.7 °F - 43.5 °F 37% 30.16 in 10.0 mi ESE 5.8 mph - N/A   Clear
12:14 PM 72.1 °F - 42.6 °F 34% 30.16 in 10.0 mi ESE 5.8 mph - N/A   Clear
12:34 PM 73.2 °F - 41.7 °F 32% 30.14 in 10.0 mi East 6.9 mph - N/A   Clear
12:54 PM 74.5 °F - 39.2 °F 28% 30.14 in 10.0 mi East 6.9 mph - N/A   Clear
1:14 PM 75.7 °F - 37.9 °F 26% 30.13 in 10.0 mi ESE 5.8 mph - N/A   Clear
1:34 PM 76.8 °F - 35.2 °F 22% 30.13 in 10.0 mi ENE 6.9 mph - N/A   Clear
1:54 PM 76.8 °F - 33.3 °F 20% 30.11 in 10.0 mi ENE 8.1 mph - N/A   Clear
2:14 PM 77.4 °F - 34.9 °F 21% 30.11 in 10.0 mi NE 8.1 mph - N/A   Clear
2:34 PM 77.5 °F - 32.9 °F 20% 30.11 in 10.0 mi ENE 4.6 mph - N/A   Clear
2:54 PM 77.4 °F - 33.1 °F 20% 30.11 in 10.0 mi ENE 5.8 mph - N/A   Clear
3:14 PM 77.4 °F - 32.2 °F 19% 30.10 in 10.0 mi NNE 8.1 mph - N/A   Clear
3:34 PM 77.9 °F - 32.4 °F 19% 30.10 in 10.0 mi ESE 3.5 mph - N/A   Clear
3:54 PM 77.2 °F - 28.9 °F 17% 30.09 in 10.0 mi Calm Calm - N/A   Clear
4:14 PM 77.9 °F - 29.1 °F 17% 30.09 in 10.0 mi ENE 4.6 mph - N/A   Clear
4:34 PM 77.4 °F - 29.8 °F 18% 30.09 in 10.0 mi East 4.6 mph - N/A   Clear
4:54 PM 75.7 °F - 29.1 °F 18% 30.09 in 10.0 mi Calm Calm - N/A   Scattered Clouds
5:14 PM 77.2 °F - 29.7 °F 18% 30.09 in 10.0 mi ENE 3.5 mph - N/A   Scattered Clouds
5:34 PM 77.0 °F - 28.8 °F 17% 30.09 in 10.0 mi East 5.8 mph - N/A   Scattered Clouds
5:54 PM 76.8 °F - 29.8 °F 18% 30.10 in 10.0 mi Calm Calm - N/A   Mostly Cloudy
6:14 PM 75.6 °F - 30.7 °F 19% 30.10 in 10.0 mi East 3.5 mph - N/A   Scattered Clouds
6:34 PM 73.0 °F - 31.5 °F 22% 30.11 in 10.0 mi Calm Calm - N/A   Clear
6:54 PM 68.7 °F - 34.5 °F 28% 30.11 in 10.0 mi Calm Calm - N/A   Scattered Clouds
7:14 PM 65.5 °F - 37.6 °F 36% 30.11 in 10.0 mi Calm Calm - N/A   Scattered Clouds
7:34 PM 65.5 °F - 38.7 °F 37% 30.12 in 10.0 mi Calm Calm - N/A   Mostly Cloudy
7:54 PM 63.5 °F - 41.2 °F 44% 30.13 in 10.0 mi NNE 3.5 mph - N/A   Scattered Clouds
8:14 PM 60.1 °F - 43.9 °F 55% 30.14 in 10.0 mi North 4.6 mph - N/A   Scattered Clouds
8:34 PM 62.6 °F - 42.4 °F 48% 30.15 in 10.0 mi NNE 5.8 mph - N/A   Mostly Cloudy
8:54 PM 60.4 °F - 44.2 °F 55% 30.15 in 10.0 mi NNE 3.5 mph - N/A   Mostly Cloudy
9:14 PM 60.4 °F - 42.1 °F 51% 30.16 in 10.0 mi North 6.9 mph - N/A   Mostly Cloudy
9:34 PM 58.5 °F - 41.5 °F 53% 30.17 in 10.0 mi North 4.6 mph - N/A   Scattered Clouds
9:54 PM 57.4 °F - 41.9 °F 56% 30.17 in 10.0 mi Calm Calm - N/A   Clear
10:14 PM 57.6 °F - 43.0 °F 58% 30.17 in 10.0 mi WSW 4.6 mph - N/A   Scattered Clouds
10:34 PM 57.6 °F - 42.6 °F 57% 30.18 in 10.0 mi Calm Calm - N/A   Scattered Clouds
10:54 PM 55.9 °F - 44.4 °F 65% 30.18 in 10.0 mi Calm Calm - N/A   Scattered Clouds
11:14 PM 54.9 °F - 44.2 °F 67% 30.18 in 10.0 mi South 3.5 mph - N/A   Clear
11:34 PM 55.6 °F - 43.7 °F 64% 30.18 in 10.0 mi South 5.8 mph - N/A   Clear
11:54 PM 55.4 °F - 43.3 °F 64% 30.18 in 10.0 mi Calm Calm - N/A   Clear